Tracking 17938 objects as of 21-February-2017
HD Live streaming from Space Station
objects crossing your sky now

MAQSAT H

Track MAQSAT H now!
10-day predictions
MAQSAT H is classified as:


NORAD ID: 25023
Int'l Code: 1997-066A
Perigee: 591.3 km
Apogee: 26,406.0 km
Inclination: 7.8 °
Period: 464.6 minutes
Semi major axis: 19869 km
RCS: 21.0323 m2 (large)
Launch date: October 30, 1997
Source: European Space Agency (ESA)
Launch site: FRENCH GUIANA (FRGUI)
Your satellite tracking list
Your tracking list is empty





NASA's NSSDC Master Catalog

Two Line Element Set (TLE):
1 25023U 97066A   17051.96293728 +.00000048 +00000-0 +41804-3 0  9992
2 25023 007.8329 081.2148 6496021 008.0733 030.9338 03.09968302218272
Source of the keplerian elements: AFSPC